Tehachapi, CA

5:10 PM PDT on July 20, 2017 (GMT -0700)
Tehachapi Municipal

Weather History for KTSP - August, 2012

Change the Weather History Date:

Friday, August 10, 2012

  Actual Average Record
Temperature  
Mean Temperature 80 °F -  
Max Temperature 96 °F 89 °F 96 °F (2012)
Min Temperature 64 °F 59 °F 48 °F (2016)
Cooling Degree Days 15    
Growing Degree Days 30 (Base 50)    
Moisture  
Dew Point 49 °F    
Average Humidity 36    
Maximum Humidity 61    
Minimum Humidity 17    
Precipitation  
Precipitation 0.25 in - - ()
Sea Level Pressure  
Sea Level Pressure 30.04 in    
Wind  
Wind Speed 5 mph (WNW)    
Max Wind Speed 16 mph    
Max Gust Speed 21 mph    
Visibility 9 miles    
Events Rain , Thunderstorm    
Averages and records for this station are not official NWS values.
T = Trace of Precipitation, MM = Missing Value Source: NWS Daily Summary

Daily Weather History Graph

Daily Weather History Graph

Search for Another Location

Airport or City:

Trip Planner

Search our weather history database for the weather conditions in past years. The results will help you decide how hot, cold, wet, or windy it might be!

Date:

Astronomy

Aug. 10, 2012 Rise Set
Actual Time 6:10 AM PDT 7:47 PM PDT
Civil Twilight 5:43 AM PDT 8:14 PM PDT
Nautical Twilight 5:10 AM PDT 8:46 PM PDT
Astronomical Twilight 4:35 AM PDT 9:21 PM PDT
Moon 12:04 AM PDT (8/10) 2:28 PM PDT (8/10)
Length of Visible Light 14h 31m
Length of Day
13h 37m
Last Quarter, 41% of the Moon is Illuminated
Aug 10
Last Quarter
Aug 17
New
Aug 24
First Quarter
Aug 31
Full
Sep 8
Last Quarter

Hourly Weather History & Observations

Time (PDT) Temp. Heat Index Dew Point Humidity Pressure Visibility Wind Dir Wind Speed Gust Speed Precip Events Conditions
12:15 AM 71.6 °F - 48.2 °F 43% 30.09 in 10.0 mi WNW 3.5 mph - N/A   Clear
12:35 AM 73.4 °F - 48.2 °F 41% 30.09 in 10.0 mi West 4.6 mph - N/A   Clear
12:55 AM 71.6 °F - 48.2 °F 43% 30.09 in 10.0 mi WSW 3.5 mph - N/A   Clear
1:15 AM 73.4 °F - 48.2 °F 41% 30.08 in 10.0 mi West 4.6 mph - N/A   Clear
1:35 AM 71.6 °F - 48.2 °F 43% 30.08 in 10.0 mi NW 3.5 mph - N/A   Clear
1:55 AM 68.0 °F - 48.2 °F 49% 30.08 in 10.0 mi NNW 3.5 mph - N/A   Clear
2:15 AM 69.8 °F - 48.2 °F 46% 30.07 in 10.0 mi Calm Calm - N/A   Clear
2:35 AM 68.0 °F - 48.2 °F 49% 30.07 in 10.0 mi ESE 3.5 mph - N/A   Clear
3:15 AM 66.2 °F - 46.4 °F 49% 30.07 in 10.0 mi Calm Calm - N/A   Clear
3:35 AM 66.2 °F - 48.2 °F 52% 30.07 in 10.0 mi SE 8.1 mph - N/A   Clear
3:55 AM 66.2 °F - 48.2 °F 52% 30.06 in 10.0 mi SE 4.6 mph - N/A   Clear
4:15 AM 66.2 °F - 48.2 °F 52% 30.05 in 10.0 mi Calm Calm - N/A   Clear
5:15 AM 66.2 °F - 46.4 °F 49% 30.06 in 10.0 mi Calm Calm - N/A   Clear
5:35 AM 66.2 °F - 46.4 °F 49% 30.06 in 10.0 mi Calm Calm - N/A   Clear
5:55 AM 64.4 °F - 46.4 °F 52% 30.06 in 10.0 mi Calm Calm - N/A   Clear
6:15 AM 64.4 °F - 46.4 °F 52% 30.06 in 9.0 mi Calm Calm - N/A   Clear
6:35 AM 66.2 °F - 46.4 °F 49% 30.07 in 9.0 mi ESE 4.6 mph - N/A   Clear
7:15 AM 68.0 °F - 48.2 °F 49% 30.07 in 7.0 mi Calm Calm - N/A   Clear
7:35 AM 71.6 °F - 48.2 °F 43% 30.07 in 7.0 mi ESE 3.5 mph - N/A   Clear
7:55 AM 75.2 °F - 48.2 °F 38% 30.06 in 8.0 mi Calm Calm - N/A   Clear
8:15 AM 77.0 °F - 48.2 °F 36% 30.06 in 8.0 mi Calm Calm - N/A   Clear
8:55 AM 84.2 °F - 46.4 °F 27% 30.06 in 10.0 mi East 3.5 mph - N/A   Clear
9:15 AM 86.0 °F - 44.6 °F 23% 30.06 in 10.0 mi South 3.5 mph - N/A   Clear
9:35 AM 87.8 °F - 44.6 °F 22% 30.06 in 10.0 mi Calm Calm - N/A   Clear
9:55 AM 89.6 °F - 44.6 °F 21% 30.06 in 9.0 mi WSW 3.5 mph - N/A   Clear
10:15 AM 93.2 °F - 44.6 °F 19% 30.06 in 9.0 mi WNW 3.5 mph - N/A   Clear
10:35 AM 95.0 °F - 46.4 °F 19% 30.05 in 10.0 mi East 10.4 mph 16.1 mph N/A   Clear
10:55 AM 95.0 °F - 44.6 °F 18% 30.05 in 10.0 mi SE 9.2 mph 16.1 mph N/A   Clear
11:15 AM 96.8 °F - 44.6 °F 17% 30.04 in 9.0 mi ESE 11.5 mph - N/A   Clear
11:35 AM 96.8 °F - 44.6 °F 17% 30.04 in 9.0 mi East 5.8 mph 16.1 mph N/A   Clear
11:55 AM 96.8 °F - 44.6 °F 17% 30.03 in 10.0 mi WNW 5.8 mph - N/A   Clear
12:15 PM 95.0 °F - 46.4 °F 19% 30.03 in 10.0 mi NW 15.0 mph - N/A   Partly Cloudy
12:35 PM 91.4 °F - 46.4 °F 21% 30.03 in 9.0 mi NW 15.0 mph 20.7 mph N/A   Mostly Cloudy
12:55 PM 91.4 °F - 46.4 °F 21% 30.03 in 10.0 mi NW 16.1 mph - N/A   Mostly Cloudy
1:15 PM 91.4 °F - 46.4 °F 21% 30.03 in 9.0 mi NW 11.5 mph - N/A   Partly Cloudy
1:35 PM 91.4 °F - 46.4 °F 21% 30.02 in 10.0 mi NW 12.7 mph - N/A   Clear
1:55 PM 89.6 °F - 46.4 °F 22% 30.02 in 10.0 mi NW 13.8 mph - N/A   Partly Cloudy
2:15 PM 93.2 °F - 46.4 °F 20% 30.01 in 10.0 mi NW 15.0 mph - N/A Thunderstorm Clear
2:35 PM 93.2 °F - 46.4 °F 20% 30.01 in 10.0 mi NW 15.0 mph - N/A   Clear
2:55 PM 91.4 °F - 46.4 °F 21% 30.01 in 10.0 mi WNW 11.5 mph 16.1 mph N/A Thunderstorm Clear
3:15 PM 82.4 °F 82.0 °F 57.2 °F 42% 30.02 in 3.0 mi West 10.4 mph - 0.03 in Rain , Thunderstorm Thunderstorms and Rain
3:35 PM 77.0 °F - 57.2 °F 50% 30.01 in 4.0 mi North 4.6 mph - 0.12 in Rain Light Rain
3:55 PM 77.0 °F - 62.6 °F 61% 30.00 in 7.0 mi SW 8.1 mph - 0.25 in Rain Light Rain
4:15 PM 86.0 °F 86.6 °F 62.6 °F 45% 29.99 in 10.0 mi NNW 4.6 mph - N/A   Clear
4:35 PM 91.4 °F 89.1 °F 53.6 °F 28% 29.98 in 10.0 mi NW 10.4 mph 16.1 mph N/A   Clear
4:55 PM 91.4 °F 89.1 °F 53.6 °F 28% 29.98 in 10.0 mi NW 13.8 mph 18.4 mph N/A   Clear
5:15 PM 91.4 °F - 50.0 °F 24% 29.98 in 10.0 mi NW 13.8 mph 20.7 mph N/A   Clear
5:35 PM 91.4 °F - 50.0 °F 24% 29.98 in 9.0 mi WNW 12.7 mph - N/A   Clear
5:55 PM 89.6 °F - 51.8 °F 27% 29.98 in 9.0 mi WNW 13.8 mph 17.3 mph N/A   Clear
6:15 PM 89.6 °F - 50.0 °F 26% 29.98 in 10.0 mi NW 9.2 mph - N/A   Clear
6:35 PM 89.6 °F - 50.0 °F 26% 29.99 in 10.0 mi NW 13.8 mph - N/A   Clear
7:35 PM 84.2 °F - 51.8 °F 33% 30.00 in 9.0 mi WNW 8.1 mph - N/A   Clear
7:55 PM 82.4 °F - 51.8 °F 35% 30.00 in 9.0 mi WNW 8.1 mph - N/A   Partly Cloudy
8:15 PM 80.6 °F 80.5 °F 55.4 °F 42% 30.01 in 10.0 mi West 4.6 mph - N/A   Partly Cloudy
8:35 PM 80.6 °F 80.3 °F 53.6 °F 39% 30.01 in 10.0 mi West 6.9 mph - N/A   Clear
8:55 PM 80.6 °F 80.3 °F 53.6 °F 39% 30.01 in 10.0 mi West 5.8 mph - N/A   Clear
9:15 PM 78.8 °F - 53.6 °F 42% 30.02 in 10.0 mi WNW 4.6 mph - N/A   Clear
9:35 PM 77.0 °F - 53.6 °F 44% 30.02 in 10.0 mi Calm Calm - N/A   Clear
10:15 PM 77.0 °F - 53.6 °F 44% 30.03 in 10.0 mi West 4.6 mph - N/A   Clear
10:35 PM 75.2 °F - 55.4 °F 50% 30.03 in 10.0 mi West 3.5 mph - N/A   Clear
10:55 PM 75.2 °F - 55.4 °F 50% 30.03 in 10.0 mi WNW 3.5 mph - N/A   Clear
11:15 PM 73.4 °F - 53.6 °F 50% 30.03 in 10.0 mi North 3.5 mph - N/A   Clear
11:35 PM 75.2 °F - 50.0 °F 41% 30.03 in 10.0 mi Calm Calm - N/A   Clear
11:55 PM 73.4 °F - 53.6 °F 50% 30.03 in 10.0 mi Calm Calm - N/A   Clear